�v������,���O�C��(��),���O���x(��),�Ɠx(lx),��O�J�Z���T�[(1:�~�J),����(m/s)
2022-05-01 00:00:00,14.8,72.2,2,0.0,1
2022-05-01 00:10:00,14.6,73.3,2,0.0,1
2022-05-01 00:20:00,14.6,73.4,2,0.0,1
2022-05-01 00:30:00,14.5,74,2,0.0,1
2022-05-01 00:40:00,14.4,74.7,2,0.0,1
2022-05-01 00:50:00,14.5,76.3,2,0.0,1
2022-05-01 01:00:00,14.4,75.8,2,0.0,1
2022-05-01 01:10:00,14.4,75.3,2,0.0,0
2022-05-01 01:20:00,14.5,74.7,2,0.0,1
2022-05-01 01:30:00,14.4,74.2,0,0.0,1
2022-05-01 01:40:00,14.5,75.1,2,0.0,1
2022-05-01 01:50:00,14.4,75.4,0,0.0,1
2022-05-01 02:00:00,14.4,73.8,2,0.0,0
2022-05-01 02:10:00,14.6,74.2,2,0.0,0
2022-05-01 02:20:00,14.6,74.7,2,0.0,1
2022-05-01 02:30:00,14.5,76.5,2,0.0,0
2022-05-01 02:40:00,14.3,79.8,2,0.0,1
2022-05-01 02:50:00,14.2,79.2,2,0.0,1
2022-05-01 03:00:00,14.2,79.9,2,0.0,1
2022-05-01 03:10:00,14.2,79.9,2,0.0,0
2022-05-01 03:20:00,14.2,79.8,0,0.0,0
2022-05-01 03:30:00,14,79.6,0,0.0,0
2022-05-01 03:40:00,14.2,80,0,0.0,0
2022-05-01 03:50:00,14,80.8,0,0.0,0
2022-05-01 04:00:00,14.1,82,0,0.0,0.5
2022-05-01 04:10:00,14,81.8,0,0.0,0
2022-05-01 04:20:00,14,81.9,2,0.0,0
2022-05-01 04:30:00,13.9,82.2,0,0.0,0.5
2022-05-01 04:40:00,13.8,82.4,2,0.0,0
2022-05-01 04:50:00,13.7,82.8,2,0.0,1
2022-05-01 05:00:00,13.8,83.9,2,0.0,1
2022-05-01 05:10:00,13.4,83.7,6,0.0,1
2022-05-01 05:20:00,13.5,83.9,70,0.0,1
2022-05-01 05:30:00,13.5,84.3,216,0.0,0
2022-05-01 05:40:00,13.5,84.2,999.68,0.0,0
2022-05-01 05:50:00,13.6,85,999.68,0.0,0
2022-05-01 06:00:00,13.4,85.4,1999.36,0.0,1
2022-05-01 06:10:00,13.6,85.2,2997.76,0.0,0
2022-05-01 06:20:00,13.6,85.3,2997.76,0.0,1
2022-05-01 06:30:00,13.7,84.9,4999.68,0.0,0
2022-05-01 06:40:00,13.8,84.6,7495.68,0.0,1
2022-05-01 06:50:00,14.1,83.1,7997.44,0.0,0
2022-05-01 07:00:00,14.2,82.4,8995.84,0.0,1
2022-05-01 07:10:00,14.2,81.4,11991,0.0,1
2022-05-01 07:20:00,14.8,79.2,37990.4,0.0,0.5
2022-05-01 07:30:00,15.2,76.8,45998.1,0.0,0
2022-05-01 07:40:00,15.4,75.7,37990.4,0.0,2
2022-05-01 07:50:00,15.6,73.4,20490.2,0.0,1.5
2022-05-01 08:00:00,15.6,71.7,29491.2,0.0,2
2022-05-01 08:10:00,15.6,72.2,37990.4,0.0,1
2022-05-01 08:20:00,16.2,70.2,49971.2,0.0,1.5
2022-05-01 08:30:00,15.9,69.4,42967,0.0,3
2022-05-01 08:40:00,16.3,69,31989.8,0.0,3.5
2022-05-01 08:50:00,16.4,67.4,45998.1,0.0,2
2022-05-01 09:00:00,16.7,66.4,38993.9,0.0,2.5
2022-05-01 09:10:00,16.7,67.3,30986.2,0.0,3
2022-05-01 09:20:00,16.8,66.4,28487.7,0.0,2
2022-05-01 09:30:00,16.4,67.8,20490.2,0.0,2.5
2022-05-01 09:40:00,17.1,65.4,29982.7,0.0,1
2022-05-01 09:50:00,17.4,61.3,34979.8,0.0,1
2022-05-01 10:00:00,17.6,60.6,39997.4,0.0,2.5
2022-05-01 10:10:00,18.2,59.2,44974.1,0.0,2
2022-05-01 10:20:00,18.4,58.6,49971.2,0.0,1
2022-05-01 10:30:00,18.2,57,36986.9,0.0,3
2022-05-01 10:40:00,18.4,58.3,28999.7,0.0,1.5
2022-05-01 10:50:00,17.9,59.7,42967,0.0,1
2022-05-01 11:00:00,18.3,57.7,36495.4,0.0,1
2022-05-01 11:10:00,19.3,55.3,35983.4,0.0,1
2022-05-01 11:20:00,19.1,55,35983.4,0.0,2
2022-05-01 11:30:00,19.6,51.5,41984,0.0,1.5
2022-05-01 11:40:00,20.2,49.4,40980.5,0.0,1
2022-05-01 11:50:00,19.9,49.5,36986.9,0.0,2
2022-05-01 12:00:00,19.5,50.7,42967,0.0,2
2022-05-01 12:10:00,19.3,50.6,35983.4,0.0,2.5
2022-05-01 12:20:00,20.2,48.3,38993.9,0.0,4.5
2022-05-01 12:30:00,19.9,53.9,30494.7,0.0,3.5
2022-05-01 12:40:00,19.6,55.9,29982.7,0.0,2
2022-05-01 12:50:00,19.4,55.5,31989.8,0.0,3
2022-05-01 13:00:00,19.2,55.8,33996.8,0.0,1.5
2022-05-01 13:10:00,19.7,52.1,43991,0.0,2
2022-05-01 13:20:00,20.1,51.9,31989.8,0.0,2.5
2022-05-01 13:30:00,19.8,52.1,26992.6,0.0,1
2022-05-01 13:40:00,19.6,54.5,41492.5,0.0,2
2022-05-01 13:50:00,19.6,57.8,31989.8,0.0,2
2022-05-01 14:00:00,19.1,61.7,45998.1,0.0,2
2022-05-01 14:10:00,19.2,60.5,24985.6,0.0,5.5
2022-05-01 14:20:00,18.2,64,24985.6,0.0,4
2022-05-01 14:30:00,18.4,63.9,27996.2,0.0,2
2022-05-01 14:40:00,18.3,62.3,33996.8,0.0,5.5
2022-05-01 14:50:00,18.3,64.3,24985.6,0.0,2.5
2022-05-01 15:00:00,18.4,64.8,42967,0.0,5.5
2022-05-01 15:10:00,18.8,63,37498.9,0.0,3
2022-05-01 15:20:00,19,59.9,31989.8,0.0,2
2022-05-01 15:30:00,18.4,60.9,27996.2,0.0,4
2022-05-01 15:40:00,18.5,62.8,29982.7,0.0,3
2022-05-01 15:50:00,18.3,62.6,28487.7,0.0,1
2022-05-01 16:00:00,18.5,60.8,21995.5,0.0,1
2022-05-01 16:10:00,18.7,60.6,21995.5,0.0,2
2022-05-01 16:20:00,18.5,60,21995.5,0.0,1
2022-05-01 16:30:00,18.7,59.1,21995.5,0.0,1
2022-05-01 16:40:00,18.7,58.6,21995.5,0.0,2
2022-05-01 16:50:00,18.4,55.1,21995.5,0.0,2.5
2022-05-01 17:00:00,18.7,54.4,17991.7,0.0,4.5
2022-05-01 17:10:00,18.6,54.9,15994.9,0.0,4
2022-05-01 17:20:00,18.4,51.8,16998.4,0.0,2
2022-05-01 17:30:00,18.6,51.5,12994.6,0.0,2
2022-05-01 17:40:00,18.2,47.5,8995.84,0.0,2.5
2022-05-01 17:50:00,18.3,40.7,9999.36,0.0,1
2022-05-01 18:00:00,18,39.8,6999.04,0.0,3
2022-05-01 18:10:00,18,39.5,6999.04,0.0,2
2022-05-01 18:20:00,17.8,41,4999.68,0.0,2
2022-05-01 18:30:00,17.5,45.4,2997.76,0.0,2
2022-05-01 18:40:00,17.3,46.7,1999.36,0.0,3
2022-05-01 18:50:00,17.2,45.5,1999.36,0.0,3
2022-05-01 19:00:00,17.1,43.9,999.68,0.0,3
2022-05-01 19:10:00,16.9,48.3,152,0.0,3
2022-05-01 19:20:00,16.6,50.6,12,0.0,3
2022-05-01 19:30:00,16.7,52.4,2,0.0,7
2022-05-01 19:40:00,16.4,52.8,2,0.0,2
2022-05-01 19:50:00,16.3,53.8,2,0.0,2
2022-05-01 20:00:00,16.3,54.8,0,0.0,4
2022-05-01 20:10:00,16.1,51.8,0,0.0,2.5
2022-05-01 20:20:00,16,53,2,0.0,5.5
2022-05-01 20:30:00,16,54.4,0,0.0,2.5
2022-05-01 20:40:00,15.5,55.8,0,0.0,3
2022-05-01 20:50:00,15.6,56.5,0,0.0,5.5
2022-05-01 21:00:00,15.5,57.8,0,0.0,4
2022-05-01 21:10:00,15.5,58.7,0,0.0,4.5
2022-05-01 21:20:00,15.3,58.9,0,0.0,2
2022-05-01 21:30:00,15.4,59.8,0,0.0,2
2022-05-01 21:40:00,15.3,59.7,0,0.0,1
2022-05-01 21:50:00,15.1,60,2,0.0,4
2022-05-01 22:00:00,15.2,59.2,0,0.0,3.5
2022-05-01 22:10:00,15,58.9,2,0.0,1
2022-05-01 22:20:00,14.9,62.2,0,0.0,1.5
2022-05-01 22:30:00,14.9,62.8,0,0.0,5.5
2022-05-01 22:40:00,14.8,62.6,0,0.0,3
2022-05-01 22:50:00,14.8,61.2,0,0.0,1.5
2022-05-01 23:00:00,14.7,62.2,0,0.0,2.5
2022-05-01 23:10:00,14.9,62.5,0,0.0,3
2022-05-01 23:20:00,14.7,62.1,2,0.0,3
2022-05-01 23:30:00,14.5,63.3,0,0.0,3
2022-05-01 23:40:00,14.5,61.4,0,0.0,1
2022-05-01 23:50:00,14.5,60.3,0,0.0,1
2022-05-02 00:00:00,14.1,60.2,0,0.0,1
2022-05-02 00:10:00,14,62.8,0,0.0,1
2022-05-02 00:20:00,13.5,63.9,2,0.0,1
2022-05-02 00:30:00,13.5,62.7,2,0.0,1
2022-05-02 00:40:00,13.4,61.8,0,0.0,0
2022-05-02 00:50:00,13.5,60.5,0,0.0,0
2022-05-02 01:00:00,13.6,61,0,0.0,0
2022-05-02 01:10:00,13.4,60.7,0,0.0,1
2022-05-02 01:20:00,13.3,61.8,0,0.0,1
2022-05-02 01:30:00,13.1,61.4,0,0.0,1
2022-05-02 01:40:00,13.1,60.1,0,0.0,1
2022-05-02 01:50:00,12.9,58.5,0,0.0,1
2022-05-02 02:00:00,12.9,58.6,2,0.0,0
2022-05-02 02:10:00,13,59.8,0,0.0,0
2022-05-02 02:20:00,12.9,60.9,0,0.0,0
2022-05-02 02:30:00,12.7,63.4,0,0.0,1
2022-05-02 02:40:00,12.5,64.7,2,0.0,1
2022-05-02 02:50:00,12.5,61,2,0.0,1
2022-05-02 03:00:00,12.5,62.5,0,0.0,0
2022-05-02 03:10:00,12.3,64.4,0,0.0,1
2022-05-02 03:20:00,11.9,67.3,0,0.0,0
2022-05-02 03:30:00,11.7,65.6,0,0.0,0.5
2022-05-02 03:40:00,11.7,70.3,0,0.0,1
2022-05-02 03:50:00,11.7,73.8,0,0.0,0
2022-05-02 04:00:00,11.4,73.2,0,0.0,1
2022-05-02 04:10:00,11.2,71.8,0,0.0,1
2022-05-02 04:20:00,11.2,71.3,0,0.0,0
2022-05-02 04:30:00,11.2,73.8,0,0.0,1
2022-05-02 04:40:00,11.1,71.9,0,0.0,0
2022-05-02 04:50:00,11,71.8,2,0.0,0.5
2022-05-02 05:00:00,11,73.5,4,0.0,0
2022-05-02 05:10:00,10.8,72.1,42,0.0,1
2022-05-02 05:20:00,10.7,75.4,281.92,0.0,1
2022-05-02 05:30:00,10.6,72.1,999.68,0.0,1
2022-05-02 05:40:00,10.5,72,1999.36,0.0,0
2022-05-02 05:50:00,10.7,71.8,2997.76,0.0,0
2022-05-02 06:00:00,10.9,71.7,4999.68,0.0,0
2022-05-02 06:10:00,11.1,70.1,6999.04,0.0,0
2022-05-02 06:20:00,11.4,69,8995.84,0.0,0
2022-05-02 06:30:00,11.8,67.8,10997.8,0.0,1
2022-05-02 06:40:00,11.9,67.5,10997.8,0.0,0
2022-05-02 06:50:00,12.2,67.6,14991.4,0.0,0
2022-05-02 07:00:00,12.4,63.3,23490.6,0.0,1
2022-05-02 07:10:00,12.7,62.8,47964.2,0.0,1
2022-05-02 07:20:00,13.1,63.1,34979.8,0.0,1
2022-05-02 07:30:00,13.3,60.1,35491.8,0.0,1
2022-05-02 07:40:00,13.9,54.2,22999,0.0,1
2022-05-02 07:50:00,14.7,52.8,51486.7,0.0,1
2022-05-02 08:00:00,14.8,50.1,28999.7,0.0,1
2022-05-02 08:10:00,15.7,48.2,82493.4,0.0,2
2022-05-02 08:20:00,16.3,46.1,77496.3,0.0,0
2022-05-02 08:30:00,17.1,41.4,75980.8,0.0,1
2022-05-02 08:40:00,17.9,38.9,72499.2,0.0,1
2022-05-02 08:50:00,18.4,34.1,64962.6,0.0,0
2022-05-02 09:00:00,18.5,31.3,62996.5,0.0,1
2022-05-02 09:10:00,19,31,59965.4,0.0,1
2022-05-02 09:20:00,19.6,28.9,54968.3,0.0,1
2022-05-02 09:30:00,19.6,27.2,44482.6,0.0,1
2022-05-02 09:40:00,18.9,28.1,46981.1,0.0,3
2022-05-02 09:50:00,19.3,27.8,48988.2,0.0,3
2022-05-02 10:00:00,20,26.5,43991,0.0,1
2022-05-02 10:10:00,20.3,26.6,42475.5,0.0,2
2022-05-02 10:20:00,19.7,27.9,36986.9,0.0,2.5
2022-05-02 10:30:00,20.1,26.2,34488.3,0.0,1
2022-05-02 10:40:00,20.1,27.7,33996.8,0.0,2
2022-05-02 10:50:00,21.5,25.6,31989.8,0.0,2
2022-05-02 11:00:00,21.5,24.9,32481.3,0.0,1
2022-05-02 11:10:00,22.3,23.5,32993.3,0.0,1.5
2022-05-02 11:20:00,23.2,22,29982.7,0.0,2
2022-05-02 11:30:00,23,21.8,29982.7,0.0,1
2022-05-02 11:40:00,23.5,21.9,30494.7,0.0,1
2022-05-02 11:50:00,21.9,25.4,29982.7,0.0,2
2022-05-02 12:00:00,21.9,25.9,28999.7,0.0,2
2022-05-02 12:10:00,21.8,25.5,29982.7,0.0,3
2022-05-02 12:20:00,22.3,23.9,29982.7,0.0,2
2022-05-02 12:30:00,22.2,24.4,28999.7,0.0,5
2022-05-02 12:40:00,22.3,24.5,33996.8,0.0,4
2022-05-02 12:50:00,22.5,24.8,29491.2,0.0,5.5
2022-05-02 13:00:00,22.4,24.8,30494.7,0.0,3.5
2022-05-02 13:10:00,22.7,24.5,32993.3,0.0,4.5
2022-05-02 13:20:00,22.7,24.5,32993.3,0.0,2
2022-05-02 13:30:00,22.7,24.9,32481.3,0.0,3
2022-05-02 13:40:00,23.1,25.4,30986.2,0.0,3
2022-05-02 13:50:00,22.2,26.8,33996.8,0.0,3
2022-05-02 14:00:00,22.8,27.1,36495.4,0.0,5
2022-05-02 14:10:00,22,34.5,39997.4,0.0,5
2022-05-02 14:20:00,21.9,35.4,31989.8,0.0,1
2022-05-02 14:30:00,21.9,34.4,19998.7,0.0,1
2022-05-02 14:40:00,21.9,33,41984,0.0,3.5
2022-05-02 14:50:00,21.9,32.1,17991.7,0.0,1
2022-05-02 15:00:00,21.6,36.3,41984,0.0,1
2022-05-02 15:10:00,21.4,35.7,20992,0.0,2.5
2022-05-02 15:20:00,21.2,36.1,30986.2,0.0,2
2022-05-02 15:30:00,21.1,37.7,35983.4,0.0,3
2022-05-02 15:40:00,21.2,39.8,25989.1,0.0,2
2022-05-02 15:50:00,21.2,39.9,34979.8,0.0,1
2022-05-02 16:00:00,21,41.7,14991.4,0.0,2
2022-05-02 16:10:00,19.9,43.4,10997.8,0.0,1
2022-05-02 16:20:00,20.1,44.5,12994.6,0.0,1
2022-05-02 16:30:00,20.2,43.9,13998.1,0.0,1
2022-05-02 16:40:00,19.9,44.8,10997.8,0.0,2.5
2022-05-02 16:50:00,19.5,46.3,24985.6,0.0,3
2022-05-02 17:00:00,20,45.7,26992.6,0.0,1
2022-05-02 17:10:00,20,46.7,27996.2,0.0,2
2022-05-02 17:20:00,19.8,48.3,10997.8,0.0,3.5
2022-05-02 17:30:00,19.3,50.9,6999.04,0.0,2
2022-05-02 17:40:00,18.5,52.4,2997.76,0.0,3
2022-05-02 17:50:00,18.5,53.8,2997.76,0.0,1
2022-05-02 18:00:00,17.7,55.9,2997.76,0.0,2
2022-05-02 18:10:00,17.7,59.8,999.68,0.0,1
2022-05-02 18:20:00,16.8,64.8,999.68,0.0,3.5
2022-05-02 18:30:00,17,63.6,499.84,0.0,1
2022-05-02 18:40:00,16.9,59.4,999.68,0.0,2
2022-05-02 18:50:00,17,58.5,999.68,0.0,1
2022-05-02 19:00:00,17.2,59.8,371.84,0.0,1
2022-05-02 19:10:00,17,60,148,0.0,1
2022-05-02 19:20:00,17.1,59.3,10,0.0,1.5
2022-05-02 19:30:00,16.8,61.3,2,1.0,1
2022-05-02 19:40:00,16.8,62.9,2,1.0,1
2022-05-02 19:50:00,16.4,65.5,2,1.0,1
2022-05-02 20:00:00,16.3,68.3,2,1.0,1.5
2022-05-02 20:10:00,16.1,73.5,2,1.0,1
2022-05-02 20:20:00,16,73.1,2,1.0,1
2022-05-02 20:30:00,15.8,72.1,2,1.0,0
2022-05-02 20:40:00,15.9,71.9,2,1.0,0.5
2022-05-02 20:50:00,16.3,69.8,2,1.0,1
2022-05-02 21:00:00,16.2,67.8,2,1.0,0
2022-05-02 21:10:00,16.1,66.1,2,1.0,1
2022-05-02 21:20:00,16.1,66.9,2,1.0,1
2022-05-02 21:30:00,16.3,67.6,2,1.0,1
2022-05-02 21:40:00,16.5,68.4,2,0.0,0.5
2022-05-02 21:50:00,16.3,66.3,2,0.0,0
2022-05-02 22:00:00,15.9,79.1,2,0.0,1
2022-05-02 22:10:00,15.4,81.7,2,0.0,0
2022-05-02 22:20:00,15.3,84.4,2,0.0,1
2022-05-02 22:30:00,15,85.5,2,0.0,1
2022-05-02 22:40:00,15.1,85.8,2,0.0,0
2022-05-02 22:50:00,14.8,85.2,2,0.0,0
2022-05-02 23:00:00,14.6,85.3,2,0.0,1
2022-05-02 23:10:00,14.4,85.3,2,0.0,1
2022-05-02 23:20:00,14.4,87,2,0.0,1
2022-05-02 23:30:00,14.4,87.3,0,0.0,0
2022-05-02 23:40:00,14.2,88.1,0,0.0,1
2022-05-02 23:50:00,13.9,89.1,0,0.0,1
2022-05-03 00:00:00,13.9,88.6,0,0.0,1
2022-05-03 00:10:00,13.9,88.5,0,0.0,1
2022-05-03 00:20:00,13.5,89.5,2,0.0,0.5
2022-05-03 00:30:00,13.7,89.7,2,0.0,0
2022-05-03 00:40:00,13.9,88.9,2,0.0,0
2022-05-03 00:50:00,13.5,89,2,0.0,0
2022-05-03 01:00:00,13.6,88.3,2,0.0,1
2022-05-03 01:10:00,13.3,81.2,2,0.0,2
2022-05-03 01:20:00,13.3,69.7,2,0.0,2.5
2022-05-03 01:30:00,12.5,79.2,2,1.0,4
2022-05-03 01:40:00,11.2,90.8,2,1.0,1.5
2022-05-03 01:50:00,11,91.7,2,1.0,1.5
2022-05-03 02:00:00,10.8,93.1,2,1.0,2
2022-05-03 02:10:00,10.9,93.2,2,1.0,1
2022-05-03 02:20:00,10.8,94.5,2,1.0,1
2022-05-03 02:30:00,10.8,92.5,2,1.0,1
2022-05-03 02:40:00,10.7,88.5,2,1.0,2.5
2022-05-03 02:50:00,10.9,90.1,2,1.0,1
2022-05-03 03:00:00,10.7,88.7,2,1.0,2
2022-05-03 03:10:00,10.7,89.6,2,1.0,1
2022-05-03 03:20:00,10.6,90.2,2,1.0,1
2022-05-03 03:30:00,10.5,90.7,0,1.0,1
2022-05-03 03:40:00,10.7,90.5,2,1.0,1
2022-05-03 03:50:00,10.8,87.4,0,1.0,0
2022-05-03 04:00:00,10.8,85.9,0,1.0,2
2022-05-03 04:10:00,10.8,85.5,0,1.0,1
2022-05-03 04:20:00,11,88.9,0,1.0,1
2022-05-03 04:30:00,10.6,93,0,0.0,0.5
2022-05-03 04:40:00,10.3,94.3,0,0.0,1
2022-05-03 04:50:00,10.1,95.4,2,0.0,1
2022-05-03 05:00:00,10,96,4,0.0,1
2022-05-03 05:10:00,9.8,97,50,0.0,1
2022-05-03 05:20:00,9.7,97.3,268,0.0,2
2022-05-03 05:30:00,9.8,97.4,999.68,0.0,1
2022-05-03 05:40:00,9.9,97.4,1999.36,0.0,1
2022-05-03 05:50:00,10,96.7,2997.76,0.0,0
2022-05-03 06:00:00,10.4,94.7,5995.52,0.0,1
2022-05-03 06:10:00,10.8,91.9,7997.44,0.0,0
2022-05-03 06:20:00,10.6,91.9,10997.8,0.0,0
2022-05-03 06:30:00,10.5,93.8,33996.8,0.0,1
2022-05-03 06:40:00,10.6,92.6,14991.4,0.0,1
2022-05-03 06:50:00,11,91.9,14991.4,0.0,1
2022-05-03 07:00:00,11.1,89.4,15493.1,0.0,1
2022-05-03 07:10:00,11.1,89.2,46981.1,0.0,1
2022-05-03 07:20:00,11.4,87.3,78970.9,0.0,1
2022-05-03 07:30:00,11.9,84.7,80977.9,0.0,1
2022-05-03 07:40:00,12.5,83.1,82985,0.0,1
2022-05-03 07:50:00,12.8,80.3,80977.9,0.0,1
2022-05-03 08:00:00,13.3,78.3,80977.9,0.0,2
2022-05-03 08:10:00,13.7,74.8,77987.8,0.0,1
2022-05-03 08:20:00,14.3,74.4,75980.8,0.0,1.5
2022-05-03 08:30:00,14.8,69.2,73973.8,0.0,1
2022-05-03 08:40:00,15.1,66.6,70983.7,0.0,2
2022-05-03 08:50:00,15.4,64.8,67993.6,0.0,1
2022-05-03 09:00:00,15.7,61.8,63979.5,0.0,0
2022-05-03 09:10:00,15.7,62.8,60989.4,0.0,1
2022-05-03 09:20:00,16.4,58.8,56975.4,0.0,1
2022-05-03 09:30:00,17,57.7,53985.3,0.0,1
2022-05-03 09:40:00,17.5,55.1,51978.2,0.0,1
2022-05-03 09:50:00,16.5,55.7,48988.2,0.0,2
2022-05-03 10:00:00,16.1,60.8,46981.1,0.0,1.5
2022-05-03 10:10:00,17,58.2,42967,0.0,1.5
2022-05-03 10:20:00,17,59.9,41984,0.0,1
2022-05-03 10:30:00,17.6,57,38481.9,0.0,2
2022-05-03 10:40:00,17.6,57.2,34979.8,0.0,1.5
2022-05-03 10:50:00,18,57.2,36986.9,0.0,2
2022-05-03 11:00:00,17.9,53.5,31498.2,0.0,2
2022-05-03 11:10:00,17.6,52.2,33996.8,0.0,1.5
2022-05-03 11:20:00,17.7,53,29982.7,0.0,1
2022-05-03 11:30:00,16.4,57.6,27996.2,0.0,3
2022-05-03 11:40:00,16.9,54.7,28487.7,0.0,2
2022-05-03 11:50:00,17.1,50.1,28999.7,0.0,3
2022-05-03 12:00:00,17,45,27996.2,0.0,4
2022-05-03 12:10:00,16.9,50.5,27996.2,0.0,2
2022-05-03 12:20:00,17.1,48.1,27996.2,0.0,3
2022-05-03 12:30:00,17.3,46.4,28999.7,0.0,4
2022-05-03 12:40:00,18.3,38.7,27996.2,0.0,2
2022-05-03 12:50:00,20,36.1,28487.7,0.0,1
2022-05-03 13:00:00,20.2,35.3,27996.2,0.0,1
2022-05-03 13:10:00,20.5,36.3,27996.2,0.0,2
2022-05-03 13:20:00,20.7,37.6,27996.2,0.0,3.5
2022-05-03 13:30:00,20.8,36.9,28999.7,0.0,3
2022-05-03 13:40:00,20,37.1,29491.2,0.0,2
2022-05-03 13:50:00,20.9,35.8,29491.2,0.0,2.5
2022-05-03 14:00:00,20.4,36,28999.7,0.0,3
2022-05-03 14:10:00,20.2,36.4,29982.7,0.0,2
2022-05-03 14:20:00,20.1,35.4,29982.7,0.0,1.5
2022-05-03 14:30:00,19.8,36.3,30986.2,0.0,2
2022-05-03 14:40:00,19.8,37,30986.2,0.0,2.5
2022-05-03 14:50:00,20.1,36,31989.8,0.0,2
2022-05-03 15:00:00,19.9,37.1,31989.8,0.0,1
2022-05-03 15:10:00,19.8,37.9,31989.8,0.0,1
2022-05-03 15:20:00,19.7,38.8,31989.8,0.0,3
2022-05-03 15:30:00,19.8,36.9,31989.8,0.0,1
2022-05-03 15:40:00,19.9,35.7,31989.8,0.0,2
2022-05-03 15:50:00,19.6,36.1,32993.3,0.0,3
2022-05-03 16:00:00,19.8,35.7,31989.8,0.0,1
2022-05-03 16:10:00,19.7,35.9,31989.8,0.0,2
2022-05-03 16:20:00,19.5,36.8,31989.8,0.0,3
2022-05-03 16:30:00,19.8,36.3,30986.2,0.0,1
2022-05-03 16:40:00,19.9,34.8,29982.7,0.0,1
2022-05-03 16:50:00,19.8,33.7,28999.7,0.0,2
2022-05-03 17:00:00,19.5,33.3,27996.2,0.0,2.5
2022-05-03 17:10:00,19.9,32.1,25989.1,0.0,1
2022-05-03 17:20:00,19.8,32.5,23982.1,0.0,2
2022-05-03 17:30:00,20,32.3,22999,0.0,1
2022-05-03 17:40:00,20.1,33.5,20992,0.0,1
2022-05-03 17:50:00,18.7,34.5,17991.7,0.0,3
2022-05-03 18:00:00,18.5,39.9,15994.9,0.0,2
2022-05-03 18:10:00,17.8,42.5,13998.1,0.0,1
2022-05-03 18:20:00,17.4,41.1,10997.8,0.0,2.5
2022-05-03 18:30:00,17.3,43.2,6999.04,0.0,2
2022-05-03 18:40:00,17,41.4,3998.72,0.0,1
2022-05-03 18:50:00,16.9,39.8,1999.36,0.0,2
2022-05-03 19:00:00,16.8,41.1,999.68,0.0,2
2022-05-03 19:10:00,17,38.3,158,0.0,1
2022-05-03 19:20:00,16.7,40.1,18,0.0,0
2022-05-03 19:30:00,16.7,40.2,2,0.0,1
2022-05-03 19:40:00,16.6,39.9,2,0.0,0
2022-05-03 19:50:00,16.4,41.1,2,0.0,0
2022-05-03 20:00:00,16.4,41,2,0.0,0
2022-05-03 20:10:00,16.1,46,0,0.0,0
2022-05-03 20:20:00,16.2,50.1,2,0.0,0
2022-05-03 20:30:00,15.9,54.9,2,0.0,0
2022-05-03 20:40:00,15.6,59.8,2,0.0,1
2022-05-03 20:50:00,15.4,62.8,2,0.0,1
2022-05-03 21:00:00,15.3,65,0,0.0,1
2022-05-03 21:10:00,15,66.6,0,0.0,1
2022-05-03 21:20:00,14.8,68.2,2,0.0,1
2022-05-03 21:30:00,14.6,69.4,0,0.0,1
2022-05-03 21:40:00,14.4,70.8,0,0.0,1.5
2022-05-03 21:50:00,14.4,72.4,2,0.0,0
2022-05-03 22:00:00,14.1,73.3,2,0.0,0
2022-05-03 22:10:00,14,74.2,0,0.0,0
2022-05-03 22:20:00,14,75.4,0,0.0,0
2022-05-03 22:30:00,13.8,76.1,2,0.0,1
2022-05-03 22:40:00,13.7,77.2,2,0.0,1
2022-05-03 22:50:00,13.6,78.1,0,0.0,1
2022-05-03 23:00:00,13.4,78,0,0.0,1
2022-05-03 23:10:00,13.3,77.5,0,0.0,0
2022-05-03 23:20:00,13.2,77.5,2,0.0,1
2022-05-03 23:30:00,13.1,78.2,0,0.0,0.5
2022-05-03 23:40:00,13,77.9,0,0.0,0
2022-05-03 23:50:00,12.9,78.3,2,0.0,1
2022-05-04 00:00:00,12.9,78.7,0,0.0,1
2022-05-04 00:10:00,12.9,79.6,0,0.0,0
2022-05-04 00:20:00,12.7,78.9,0,0.0,0
2022-05-04 00:30:00,12.5,78.1,0,0.0,1
2022-05-04 00:40:00,12.5,78.2,0,0.0,0
2022-05-04 00:50:00,12.5,77.7,0,0.0,0
2022-05-04 01:00:00,12.2,77.9,0,0.0,0
2022-05-04 01:10:00,12.5,78.6,0,0.0,0
2022-05-04 01:20:00,12.3,79.4,0,0.0,1
2022-05-04 01:30:00,12.2,80,0,0.0,0.5
2022-05-04 01:40:00,12.3,80.5,0,0.0,0
2022-05-04 01:50:00,12,81.3,0,0.0,0.5
2022-05-04 02:00:00,11.7,82,2,0.0,1
2022-05-04 02:10:00,12,82.3,0,0.0,1
2022-05-04 02:20:00,11.8,82.8,0,0.0,0
2022-05-04 02:30:00,11.7,83.7,0,0.0,1
2022-05-04 02:40:00,11.2,85.7,0,0.0,1
2022-05-04 02:50:00,11.4,88.1,0,0.0,1
2022-05-04 03:00:00,11.1,88.6,0,0.0,1
2022-05-04 03:10:00,11.4,87.7,0,0.0,0
2022-05-04 03:20:00,11.4,87.2,0,0.0,0
2022-05-04 03:30:00,10.9,86.9,0,0.0,0
2022-05-04 03:40:00,11.1,88,0,0.0,0
2022-05-04 03:50:00,11.1,89,0,0.0,1
2022-05-04 04:00:00,10.6,89,0,0.0,0
2022-05-04 04:10:00,10.7,88.9,0,0.0,0
2022-05-04 04:20:00,10.7,88.8,0,0.0,1
2022-05-04 04:30:00,10.4,90,0,0.0,1
2022-05-04 04:40:00,10.5,90.7,2,0.0,1
2022-05-04 04:50:00,10.3,90.7,2,0.0,1
2022-05-04 05:00:00,10.5,90.4,12,0.0,1
2022-05-04 05:10:00,10.3,90.1,106,0.0,0.5
2022-05-04 05:20:00,10.3,89.7,999.68,0.0,1
2022-05-04 05:30:00,10.3,89.5,999.68,0.0,1
2022-05-04 05:40:00,10.2,89.4,1999.36,0.0,1
2022-05-04 05:50:00,10.6,87.8,3998.72,0.0,1
2022-05-04 06:00:00,11,86.5,5995.52,0.0,1
2022-05-04 06:10:00,11.3,84.9,7997.44,0.0,0
2022-05-04 06:20:00,11.2,84.8,10997.8,0.0,1
2022-05-04 06:30:00,11.1,85.7,13998.1,0.0,1
2022-05-04 06:40:00,11.5,84.7,12994.6,0.0,1
2022-05-04 06:50:00,11.8,82.8,12994.6,0.0,0
2022-05-04 07:00:00,12.1,80.7,14991.4,0.0,0.5
2022-05-04 07:10:00,12.6,78.7,51978.2,0.0,1.5
2022-05-04 07:20:00,13.3,77.1,79994.9,0.0,1
2022-05-04 07:30:00,14,73,80977.9,0.0,1
2022-05-04 07:40:00,14.4,70,80977.9,0.0,1
2022-05-04 07:50:00,14.8,67.4,80977.9,0.0,1
2022-05-04 08:00:00,15.1,66,79994.9,0.0,1
2022-05-04 08:10:00,15.3,65.2,77987.8,0.0,0.5
2022-05-04 08:20:00,15.6,63.8,75980.8,0.0,1
2022-05-04 08:30:00,16.1,60,72990.7,0.0,1
2022-05-04 08:40:00,16.8,56.8,69959.7,0.0,1
2022-05-04 08:50:00,16.7,59.7,65986.6,0.0,1
2022-05-04 09:00:00,17.1,63.1,62996.5,0.0,2.5
2022-05-04 09:10:00,17.1,63.9,58982.4,0.0,3
2022-05-04 09:20:00,17,65.9,55992.3,0.0,2
2022-05-04 09:30:00,16.8,66.5,52961.3,0.0,2.5
2022-05-04 09:40:00,17.1,64.5,49971.2,0.0,4
2022-05-04 09:50:00,17.2,62.8,46981.1,0.0,2
2022-05-04 10:00:00,17.3,62.8,44974.1,0.0,2
2022-05-04 10:10:00,17,72.2,40980.5,0.0,3
2022-05-04 10:20:00,17.6,69.8,37990.4,0.0,1
2022-05-04 10:30:00,18.3,63.7,33996.8,0.0,1
2022-05-04 10:40:00,18.9,58.9,30986.2,0.0,1.5
2022-05-04 10:50:00,20,55,34979.8,0.0,1
2022-05-04 11:00:00,20.8,54.6,31498.2,0.0,1
2022-05-04 11:10:00,19.8,59.1,28487.7,0.0,1
2022-05-04 11:20:00,19.9,62.2,28487.7,0.0,2
2022-05-04 11:30:00,20,66.5,27484.2,0.0,2
2022-05-04 11:40:00,19.6,68.4,26992.6,0.0,2
2022-05-04 11:50:00,19.6,70.5,27484.2,0.0,1.5
2022-05-04 12:00:00,18.7,75.5,27996.2,0.0,5
2022-05-04 12:10:00,17.9,80.9,26480.6,0.0,4
2022-05-04 12:20:00,18.3,81,26992.6,0.0,5
2022-05-04 12:30:00,18.4,80.7,27996.2,0.0,2
2022-05-04 12:40:00,18.5,81.6,26992.6,0.0,5.5
2022-05-04 12:50:00,19.1,78.7,26992.6,0.0,6
2022-05-04 13:00:00,19.3,78.5,27996.2,0.0,1
2022-05-04 13:10:00,19.1,78,27996.2,0.0,3.5
2022-05-04 13:20:00,19.6,76,27996.2,0.0,4
2022-05-04 13:30:00,20.3,72.7,28999.7,0.0,5.5
2022-05-04 13:40:00,20.3,73.3,29982.7,0.0,4.5
2022-05-04 13:50:00,19.9,74.9,30986.2,0.0,4
2022-05-04 14:00:00,20.1,74.7,31498.2,0.0,3
2022-05-04 14:10:00,20.1,72.5,30986.2,0.0,3
2022-05-04 14:20:00,20.9,69.4,38993.9,0.0,3
2022-05-04 14:30:00,20.7,66.7,37990.4,0.0,3
2022-05-04 14:40:00,20.6,65.3,34979.8,0.0,5.5
2022-05-04 14:50:00,20.8,63.3,38993.9,0.0,7
2022-05-04 15:00:00,21.3,62.6,35983.4,0.0,3
2022-05-04 15:10:00,21.1,60.4,36986.9,0.0,5
2022-05-04 15:20:00,20.9,61.6,35491.8,0.0,3
2022-05-04 15:30:00,21.3,61.5,32993.3,0.0,4
2022-05-04 15:40:00,20.8,62.7,31989.8,0.0,3.5
2022-05-04 15:50:00,21.2,61.2,28999.7,0.0,4.5
2022-05-04 16:00:00,21.1,63.8,27996.2,0.0,3
2022-05-04 16:10:00,20.9,66.4,29982.7,0.0,4.5
2022-05-04 16:20:00,21,65.7,32993.3,0.0,5
2022-05-04 16:30:00,21,64,19998.7,0.0,4
2022-05-04 16:40:00,21.3,62.9,28999.7,0.0,2
2022-05-04 16:50:00,21.2,65.9,22999,0.0,3
2022-05-04 17:00:00,20.8,65.9,23982.1,0.0,2
2022-05-04 17:10:00,21.1,64.3,17991.7,0.0,3
2022-05-04 17:20:00,20.8,63.8,16998.4,0.0,2.5
2022-05-04 17:30:00,20.9,64.9,16998.4,0.0,2
2022-05-04 17:40:00,21,65.2,11991,0.0,2
2022-05-04 17:50:00,20.5,67.7,9999.36,0.0,2
2022-05-04 18:00:00,20.8,65.4,6999.04,0.0,1
2022-05-04 18:10:00,20.7,66.5,5995.52,0.0,1
2022-05-04 18:20:00,20.6,67.1,4999.68,0.0,1
2022-05-04 18:30:00,20.4,67,4999.68,0.0,2
2022-05-04 18:40:00,20.2,70.2,2997.76,0.0,2.5
2022-05-04 18:50:00,19.9,71.2,1999.36,0.0,1
2022-05-04 19:00:00,19.9,71.8,999.68,0.0,1
2022-05-04 19:10:00,19.8,72.6,209.92,0.0,1
2022-05-04 19:20:00,19.6,73,26,0.0,1
2022-05-04 19:30:00,19.8,73.1,4,0.0,0
2022-05-04 19:40:00,19.5,73.3,2,0.0,0
2022-05-04 19:50:00,19.7,67.4,2,0.0,1
2022-05-04 20:00:00,19.9,66.9,2,0.0,1
2022-05-04 20:10:00,19.8,67,2,0.0,0
2022-05-04 20:20:00,19.6,66.6,2,0.0,1
2022-05-04 20:30:00,19.4,67,2,0.0,1
2022-05-04 20:40:00,19.5,67.2,0,0.0,1
2022-05-04 20:50:00,19.2,67.6,2,0.0,1
2022-05-04 21:00:00,19.1,68.1,2,0.0,1
2022-05-04 21:10:00,19.1,68.7,2,0.0,1
2022-05-04 21:20:00,19.1,69.3,2,0.0,1
2022-05-04 21:30:00,18.8,69.6,2,0.0,1
2022-05-04 21:40:00,18.8,70.1,2,0.0,0
2022-05-04 21:50:00,18.5,70.5,2,0.0,1